Terug naar catalogus

CZ-4C DEB

ActiefLEO
NORAD 43418·DEBRIS·🇨🇳 China

Gelanceerd Dec 10, 2014 vanaf Jiuquan Satellite Launch Center

Loading…

Volgende Passages (komende 24 uur)

TLE

VerouderdSource: Space-Track

Epoch: Aug 15, 2026, 06:52 UTC

1 43418U 14080G   26227.28627778  .00000044  00000-0  14468-3 0  9993
2 43418  63.3900 170.2355 0386342   9.4088 351.3911 13.45321779552974

Volg CZ-4C DEB in realtime met AllMySat

Download on the App Store